Location: Bismarck
(46.7731°N, 100.8200°W)
Time: 06:04:28
(UTC-05:00)

Amateur Radio Satellites - All Passes

Search period start: 19 October 2017 05:34
Search period end: 20 October 2017 05:34
Location: Bismarck, 46.7731°N, 100.8200°W

Satellite Date Start Highest point End Downlink Frequencies (MHz)
Time Altitude Azimuth
RS-15 19 Oct 05:34:28 05:45:41 38° 340° (NNW) 05:56:41 29.354- 29.394
O/OREOS (USA 219) 19 Oct 06:10:39 06:13:36 16° 47° (NE) 06:16:31 437.305
DOVE 4 19 Oct 06:19:34 06:24:04 34° 96° (E) 06:28:44 437.250
NO-84 19 Oct 06:23:01 06:27:12 51° 333° (NNW) 06:31:14 435.350 FM
KKS-1 19 Oct 06:28:40 06:32:54 43° 261° (W) 06:37:10 437.445
ITAMSAT 1 19 Oct 06:35:27 06:40:08 34° 295° (WNW) 06:44:48 435.822/435.867
CUBESAT XI-V 19 Oct 06:37:17 06:39:45 14° 271° (W) 06:42:13 437.345
STRAND 1 19 Oct 06:50:42 06:54:09 19° 58° (ENE) 06:57:38 437.568
CUTE-I 19 Oct 06:55:00 06:58:30 17° 89° (E) 07:02:00 437.470
XW-2F 19 Oct 06:55:58 06:58:08 15° 91° (E) 07:00:16 145.980 - 146.000
KAITUO 1B 19 Oct 06:57:23 06:58:48 12° 89° (E) 07:00:11 145.475/437.950
LilacSat-2 19 Oct 06:57:37 07:00:14 18° 92° (E) 07:02:50 437.200
AO-7 19 Oct 06:58:44 07:06:17 41° 303° (WNW) 07:13:52 .
STARS 19 Oct 07:05:39 07:09:50 43° 261° (W) 07:14:03 437.465
XW-2D 19 Oct 07:06:33 07:09:29 21° 93° (E) 07:12:23 145.860 - 145.880
NUDT-PHONESAT 19 Oct 07:13:09 07:15:38 17° 92° (E) 07:18:06 437.300
XW-2B 19 Oct 07:19:41 07:22:58 28° 95° (E) 07:26:14 145.730 - 145.750
SO-50 19 Oct 07:41:31 07:45:04 23° 114° (ESE) 07:48:38 436.795
XW-2C 19 Oct 07:42:34 07:46:16 54° 100° (E) 07:49:55 145.795 - 145.815
O/OREOS (USA 219) 19 Oct 07:48:58 07:53:37 80° 247° (WSW) 07:58:12 437.305
RS-15 19 Oct 07:51:32 08:02:28 35° 14° (NNE) 08:12:58 29.354- 29.394
DOVE 4 19 Oct 07:57:18 08:01:41 34° 292° (WNW) 08:06:15 437.250
CUTE 1.7 + AOD 2 19 Oct 08:00:22 08:03:29 20° 92° (E) 08:06:36 437.475
NO-84 19 Oct 08:01:44 08:05:17 26° 353° (N) 08:08:40 435.350 FM
FO-29 19 Oct 08:08:56 08:12:17 17° 54° (NE) 08:15:47 435.910
SEEDS 19 Oct 08:10:39 08:13:16 16° 91° (E) 08:15:52 437.485
HO-68 19 Oct 08:21:00 08:27:43 40° 97° (E) 08:34:22 435.675
STRAND 1 19 Oct 08:27:39 08:32:46 72° 257° (WSW) 08:37:57 437.568
XW-2F 19 Oct 08:28:55 08:32:29 44° 288° (WNW) 08:36:02 145.980 - 146.000
KAITUO 1B 19 Oct 08:29:31 08:33:07 55° 287° (WNW) 08:36:43 145.475/437.950
LilacSat-2 19 Oct 08:31:10 08:34:40 37° 289° (WNW) 08:38:09 437.200
CUTE-I 19 Oct 08:33:44 08:39:06 73° 287° (WNW) 08:44:27 437.470
PCSat 19 Oct 08:38:02 08:41:25 17° 105° (ESE) 08:44:48 145.827
AAUSAT CUBESAT 2 19 Oct 08:39:04 08:41:22 15° 90° (E) 08:43:41 437.432
XW-2D 19 Oct 08:40:23 08:43:42 31° 291° (WNW) 08:47:01 145.860 - 145.880
CUBEBUG 2 19 Oct 08:45:31 08:49:52 36° 96° (E) 08:54:04 437.445
NUDT-PHONESAT 19 Oct 08:46:15 08:49:39 36° 289° (WNW) 08:53:01 437.300
AO-73 19 Oct 08:48:33 08:49:32 11° 86° (E) 08:50:31 145.935
AO-7 19 Oct 08:53:53 08:56:51 12° 327° (NNW) 08:59:50 .
XW-2B 19 Oct 08:54:01 08:57:02 23° 293° (WNW) 09:00:03 145.730 - 145.750
XW-2A 19 Oct 09:07:46 09:10:53 34° 98° (E) 09:13:58 145.665 - 145.685
ZACube-1 19 Oct 09:07:53 09:11:07 20° 91° (E) 09:14:17 437.345
XW-2C 19 Oct 09:18:04 09:20:01 14° 298° (WNW) 09:21:58 145.795 - 145.815
SO-50 19 Oct 09:20:52 09:25:14 50° 313° (NW) 09:29:39 436.795
UWE-3 19 Oct 09:26:25 09:30:55 55° 99° (E) 09:35:15 435.000/436.395/437.385
UNISAT 6 19 Oct 09:28:19 09:31:41 20° 62° (ENE) 09:35:05 437.425
CUTE 1.7 + AOD 2 19 Oct 09:35:32 09:39:30 41° 290° (WNW) 09:43:26 437.475
NO-84 19 Oct 09:39:57 09:43:34 30° 15° (NNE) 09:46:58 435.350 FM
TIGRISAT 19 Oct 09:43:01 09:46:46 25° 64° (ENE) 09:50:34 435.000
SEEDS 19 Oct 09:45:12 09:49:15 51° 288° (WNW) 09:53:17 437.485
Oscar 11 19 Oct 09:46:38 09:50:26 29° 95° (E) 09:54:12 .
FO-29 19 Oct 09:51:22 09:56:35 81° 256° (WSW) 10:02:16 435.910
RS-15 19 Oct 10:05:34 10:17:39 68° 45° (NE) 10:29:02 29.354- 29.394
HO-68 19 Oct 10:08:42 10:15:33 48° 297° (WNW) 10:22:21 435.675
AAUSAT CUBESAT 2 19 Oct 10:13:08 10:17:10 56° 287° (WNW) 10:21:13 437.432
CUTE-I 19 Oct 10:15:53 10:18:14 13° 307° (NW) 10:20:34 437.470
YUBILEINY 19 Oct 10:16:58 10:25:16 53° 89° (E) 10:33:38 435.215
PCSat 19 Oct 10:18:42 10:24:08 81° 305° (NW) 10:29:36 145.827
DELFI C3 19 Oct 10:19:21 10:21:36 15° 90° (E) 10:23:50 145.870
AO-73 19 Oct 10:21:59 10:26:25 83° 284° (WNW) 10:30:42 145.935
CUBEBUG 2 19 Oct 10:22:20 10:26:19 28° 295° (WNW) 10:30:12 437.445
XW-2A 19 Oct 10:41:14 10:43:19 16° 295° (WNW) 10:45:24 145.665 - 145.685
ZACube-1 19 Oct 10:43:25 10:47:39 45° 290° (WNW) 10:51:45 437.345
ISS 19 Oct 10:50:49 10:51:48 11° 133° (SE) 10:52:47 437.550
PRISM 19 Oct 10:56:33 11:00:32 61° 73° (ENE) 11:04:33 437.425
UNISAT 6 19 Oct 11:03:25 11:07:59 56° 260° (W) 11:12:38 437.425
UWE-3 19 Oct 11:03:46 11:06:56 19° 298° (WNW) 11:10:04 435.000/436.395/437.385
AIST 2D 19 Oct 11:04:22 11:06:36 16° 65° (ENE) 11:08:51 435.315
SO-50 19 Oct 11:04:26 11:06:45 14° 335° (NNW) 11:09:05 436.795
QB50P2 19 Oct 11:07:49 11:09:00 11° 57° (ENE) 11:10:10 145.880/145.840
NO-84 19 Oct 11:17:26 11:21:21 83° 213° (SSW) 11:24:54 435.350 FM
TIGRISAT 19 Oct 11:18:47 11:23:12 43° 262° (W) 11:27:42 435.000
EO-88 19 Oct 11:21:28 11:24:51 35° 98° (E) 11:28:12 145.990 - 145.960
Oscar 11 19 Oct 11:22:47 11:26:32 29° 293° (WNW) 11:30:15 .
DUCHIFAT 1 19 Oct 11:23:37 11:24:59 11° 58° (ENE) 11:26:20 145.980
Max Valier Satellite 19 Oct 11:28:14 11:31:53 61° 100° (E) 11:35:31 145.860
FO-29 19 Oct 11:41:44 11:42:52 11° 277° (W) 11:44:00 435.910
DELFI C3 19 Oct 11:52:48 11:56:38 51° 288° (WNW) 12:00:30 145.870
nSIGHT-1 19 Oct 11:54:57 11:57:59 42° 145° (SE) 12:01:03 .
HO-68 19 Oct 11:59:06 12:01:35 12° 318° (NW) 12:04:04 435.675
AO-73 19 Oct 12:00:46 12:01:51 11° 303° (WNW) 12:02:55 145.935
PCSat 19 Oct 12:04:27 12:08:23 20° 325° (NW) 12:12:21 145.827
YUBILEINY 19 Oct 12:14:20 12:22:20 40° 292° (WNW) 12:30:26 435.215
LO-87 19 Oct 12:15:20 12:18:11 21° 94° (E) 12:21:01 145.935 - 145.965
EO-79 19 Oct 12:15:28 12:19:31 43° 70° (ENE) 12:23:36 145.935-145.965
RS-15 19 Oct 12:18:44 12:29:33 44° 251° (WSW) 12:39:52 29.354- 29.394
POLYITAN 1 19 Oct 12:19:46 12:23:53 48° 71° (ENE) 12:28:03 437.675
ISS 19 Oct 12:24:30 12:27:44 66° 150° (SSE) 12:30:59 437.550
Oscar 19 19 Oct 12:31:52 12:33:47 12° 54° (NE) 12:35:43 437.125/150
PRISM 19 Oct 12:34:18 12:36:13 13° 270° (W) 12:38:07 437.425
AIST 2D 19 Oct 12:36:13 12:39:31 37° 262° (W) 12:42:49 435.315
QB50P2 19 Oct 12:39:47 12:44:04 86° 77° (ENE) 12:48:23 145.880/145.840
BEESAT 3 19 Oct 12:42:28 12:44:51 15° 111° (ESE) 12:47:15 437.485
NANOSAT C BR1 19 Oct 12:44:16 12:48:32 78° 73° (ENE) 12:52:49 145.865
Gurwin Techsat 1B 19 Oct 12:53:12 12:55:47 14° 54° (NE) 12:58:22 435.225
DUCHIFAT 1 19 Oct 12:55:41 12:59:56 90° 76° (ENE) 13:04:14 145.980
EO-88 19 Oct 12:55:43 12:58:15 18° 295° (WNW) 13:00:47 145.990 - 145.960
NO-84 19 Oct 12:56:29 12:58:02 12° 236° (SW) 12:59:33 435.350 FM
Max Valier Satellite 19 Oct 13:03:43 13:05:14 12° 298° (WNW) 13:06:45 145.860
BUGSAT 1 19 Oct 13:08:29 13:12:17 34° 68° (ENE) 13:16:09 437.445
VELOX 1 19 Oct 13:09:38 13:10:56 11° 88° (E) 13:12:14 145.980
ESTCUBE 1 19 Oct 13:12:33 13:17:02 64° 102° (ESE) 13:21:28 437.505/2401.250
nSIGHT-1 19 Oct 13:31:11 13:34:17 45° 344° (NNW) 13:37:23 .
LO-87 19 Oct 13:48:26 13:51:37 29° 291° (WNW) 13:54:47 145.935 - 145.965
EO-79 19 Oct 13:52:20 13:55:29 20° 268° (W) 13:58:38 145.935-145.965
POLYITAN 1 19 Oct 13:56:58 13:59:55 18° 268° (W) 14:02:55 437.675
BEESAT 2 19 Oct 13:59:06 14:02:34 28° 116° (ESE) 14:06:03 435.950
ISS 19 Oct 14:01:16 14:04:22 38° 349° (N) 14:07:28 437.550
Oscar 19 19 Oct 14:07:04 14:12:12 71° 72° (ENE) 14:17:21 437.125/150
SPROUT 19 Oct 14:07:13 14:11:30 62° 101° (E) 14:15:45 437.525
M-CUBED/EXP-1 PRIME 19 Oct 14:11:50 14:15:13 74° 251° (WSW) 14:18:30 437.505
AO-7 19 Oct 14:17:33 14:23:59 26° 49° (NE) 14:30:26 .
BEESAT 3 19 Oct 14:17:57 14:21:56 63° 309° (NW) 14:25:57 437.485
DX 1 19 Oct 14:18:27 14:20:59 15° 90° (E) 14:23:28 434.975-435.025
QB50P2 19 Oct 14:20:10 14:20:27 10° 273° (W) 14:20:45 145.880/145.840
NANOSAT C BR1 19 Oct 14:23:29 14:24:46 11° 272° (W) 14:26:04 145.865
SO-50 19 Oct 14:29:25 14:31:51 14° 25° (NNE) 14:34:18 436.795
Gurwin Techsat 1B 19 Oct 14:29:35 14:34:53 78° 73° (ENE) 14:40:13 435.225
ITAMSAT 1 19 Oct 14:40:51 14:43:07 13° 53° (NE) 14:45:23 435.822/435.867
AO-85 19 Oct 14:43:14 14:47:00 51° 121° (ESE) 14:50:53 145.980
VELOX 1 19 Oct 14:43:30 14:47:58 83° 284° (WNW) 14:52:24 145.980
BUGSAT 1 19 Oct 14:44:16 14:47:42 24° 266° (W) 14:51:11 437.445
UKube-1 19 Oct 14:44:29 14:47:25 18° 92° (E) 14:50:20 .
50 SAT 19 Oct 14:46:47 14:49:46 30° 97° (E) 14:52:43 437.505
ESTCUBE 1 19 Oct 14:50:32 14:53:20 17° 300° (WNW) 14:56:09 437.505/2401.250
nSIGHT-1 19 Oct 15:08:03 15:11:00 33° 4° (N) 15:13:58 .
BEESAT 2 19 Oct 15:36:27 15:40:11 36° 315° (NW) 15:43:59 435.950
ISS 19 Oct 15:38:14 15:41:19 37° 9° (N) 15:44:23 437.550
PCSat 19 Oct 15:38:58 15:40:19 11° 19° (NNE) 15:41:39 145.827
BEESAT 19 Oct 15:43:40 15:44:37 10° 87° (E) 15:45:33 436.000
SPROUT 19 Oct 15:44:19 15:46:54 16° 299° (WNW) 15:49:31 437.525
Oscar 19 19 Oct 15:48:47 15:52:03 17° 270° (W) 15:55:19 437.125/150
DX 1 19 Oct 15:53:13 15:57:33 61° 288° (WNW) 16:01:52 434.975-435.025
BEESAT 3 19 Oct 15:58:14 16:00:17 13° 330° (NNW) 16:02:20 437.485
AO-7 19 Oct 16:07:29 16:15:48 90° 252° (WSW) 16:24:10 .
SO-50 19 Oct 16:08:52 16:13:21 51° 47° (NE) 16:17:53 436.795
Gurwin Techsat 1B 19 Oct 16:12:20 16:15:27 16° 272° (W) 16:18:35 435.225
ITAMSAT 1 19 Oct 16:16:32 16:21:42 75° 72° (ENE) 16:26:56 435.822/435.867
UKube-1 19 Oct 16:19:31 16:23:43 50° 289° (WNW) 16:27:54 .
50 SAT 19 Oct 16:19:37 16:21:52 17° 295° (WNW) 16:24:07 437.505
VELOX 1 19 Oct 16:22:18 16:23:40 11° 304° (WNW) 16:25:03 145.980
AO-85 19 Oct 16:24:30 16:27:39 22° 323° (NW) 16:30:55 145.980
MOZHAYETS 4 19 Oct 16:42:22 16:46:47 45° 98° (E) 16:51:09
nSIGHT-1 19 Oct 16:44:23 16:47:36 74° 24° (NNE) 16:50:48 .
CUBESAT XI-V 19 Oct 16:52:17 16:54:41 14° 89° (E) 16:57:04 437.345
ITUPSAT 1 19 Oct 17:02:07 17:06:52 59° 101° (ESE) 17:11:35 437.325
HO-68 19 Oct 17:13:18 17:13:24 10° 39° (NE) 17:13:29 435.675
ISS 19 Oct 17:14:43 17:17:59 77° 210° (SSW) 17:21:16 437.550
BEESAT 19 Oct 17:18:17 17:23:06 85° 104° (ESE) 17:27:53 436.000
PCSat 19 Oct 17:20:45 17:25:34 31° 43° (NE) 17:30:20 145.827
DOVE 4 19 Oct 17:28:10 17:32:06 40° 69° (ENE) 17:36:12 437.250
XW-2F 19 Oct 17:40:20 17:41:53 12° 61° (ENE) 17:43:25 145.980 - 146.000
LilacSat-2 19 Oct 17:42:45 17:44:57 15° 63° (ENE) 17:47:09 437.200
SO-50 19 Oct 17:49:50 17:53:33 24° 246° (WSW) 17:57:19 436.795
XW-2D 19 Oct 17:50:50 17:53:21 17° 64° (ENE) 17:55:53 145.860 - 145.880
NUDT-PHONESAT 19 Oct 17:55:39 17:57:29 13° 62° (ENE) 17:59:21 437.300
ITAMSAT 1 19 Oct 17:58:36 18:01:45 16° 271° (W) 18:04:54 435.822/435.867
AO-7 19 Oct 18:03:43 18:09:38 21° 270° (W) 18:15:36 .
XW-2B 19 Oct 18:03:43 18:06:42 22° 66° (ENE) 18:09:41 145.730 - 145.750
KKS-1 19 Oct 18:16:36 18:20:28 28° 95° (E) 18:24:19 437.445
CUTE-I 19 Oct 18:19:08 18:23:59 37° 66° (ENE) 18:28:52 437.470
MOZHAYETS 4 19 Oct 18:20:06 18:23:40 23° 297° (WNW) 18:27:14
nSIGHT-1 19 Oct 18:21:09 18:23:35 20° 222° (SW) 18:26:01 .
XW-2C 19 Oct 18:26:13 18:29:46 39° 71° (ENE) 18:33:20 145.795 - 145.815
CUBESAT XI-V 19 Oct 18:27:58 18:32:33 70° 286° (WNW) 18:37:07 437.345
ITUPSAT 1 19 Oct 18:40:50 18:44:16 20° 300° (WNW) 18:47:42 437.325
STARS 19 Oct 18:52:00 18:55:48 27° 95° (E) 18:59:33 437.465
ISS 19 Oct 18:52:20 18:54:00 13° 226° (SW) 18:55:39 437.550
HO-68 19 Oct 18:52:40 18:59:13 40° 61° (ENE) 19:05:48 435.675
CUTE 1.7 + AOD 2 19 Oct 18:55:45 18:58:57 21° 65° (ENE) 19:02:09 437.475
BEESAT 19 Oct 18:57:39 19:00:13 15° 303° (WNW) 19:02:46 436.000
PCSat 19 Oct 19:03:57 19:09:15 54° 244° (WSW) 19:14:30 145.827
SEEDS 19 Oct 19:05:10 19:07:53 17° 63° (ENE) 19:10:36 437.485
DOVE 4 19 Oct 19:06:52 19:10:01 20° 269° (W) 19:13:17 437.250
KAITUO 1B 19 Oct 19:11:28 19:15:13 83° 257° (WSW) 19:18:57 145.475/437.950
XW-2F 19 Oct 19:11:44 19:15:29 65° 259° (WSW) 19:19:16 145.980 - 146.000
LilacSat-2 19 Oct 19:15:06 19:18:50 51° 261° (W) 19:22:35 437.200
XW-2D 19 Oct 19:23:36 19:27:14 42° 261° (W) 19:30:52 145.860 - 145.880
NUDT-PHONESAT 19 Oct 19:27:15 19:30:54 55° 259° (W) 19:34:35 437.300
AAUSAT CUBESAT 2 19 Oct 19:32:09 19:34:29 15° 62° (ENE) 19:36:49 437.432
XW-2B 19 Oct 19:37:18 19:40:43 31° 264° (W) 19:44:08 145.730 - 145.750
XW-2A 19 Oct 19:41:48 19:44:21 20° 67° (ENE) 19:46:55 145.665 - 145.685
CUBEBUG 2 19 Oct 19:45:39 19:50:04 42° 69° (ENE) 19:54:34 437.445
AO-73 19 Oct 19:45:51 19:48:18 14° 60° (ENE) 19:50:45 145.935
KKS-1 19 Oct 19:53:00 19:57:03 34° 293° (WNW) 20:01:05 437.445
CUTE-I 19 Oct 19:59:16 20:04:03 34° 264° (W) 20:08:53 437.470
XW-2C 19 Oct 20:01:31 20:04:07 17° 268° (W) 20:06:43 145.795 - 145.815
ZACube-1 19 Oct 20:05:56 20:09:35 24° 65° (ENE) 20:13:14 437.345
YUBILEINY 19 Oct 20:23:19 20:30:55 31° 64° (ENE) 20:38:30 435.215
UWE-3 19 Oct 20:25:20 20:29:55 62° 73° (ENE) 20:34:33 435.000/436.395/437.385
STARS 19 Oct 20:28:08 20:32:11 35° 292° (WNW) 20:36:11 437.465
CUTE 1.7 + AOD 2 19 Oct 20:30:32 20:34:31 41° 262° (W) 20:38:33 437.475
STRAND 1 19 Oct 20:35:26 20:40:02 31° 95° (E) 20:44:35 437.568
BEESAT 2 19 Oct 20:37:19 20:38:36 11° 26° (NNE) 20:39:53 435.950
SEEDS 19 Oct 20:39:06 20:43:11 53° 260° (W) 20:47:17 437.485
HO-68 19 Oct 20:39:59 20:46:50 48° 261° (W) 20:53:46 435.675
Oscar 11 19 Oct 20:43:54 20:47:47 33° 68° (ENE) 20:51:40 .
BEESAT 3 19 Oct 20:54:49 20:58:15 26° 41° (NE) 21:01:38 437.485
FO-29 19 Oct 20:57:29 21:01:06 14° 86° (E) 21:04:51 435.910
AAUSAT CUBESAT 2 19 Oct 21:05:25 21:09:28 60° 259° (W) 21:13:33 437.432
DELFI C3 19 Oct 21:07:57 21:09:50 13° 61° (ENE) 21:11:43 145.870
XW-2A 19 Oct 21:13:55 21:16:55 28° 264° (W) 21:19:55 145.665 - 145.685
AO-73 19 Oct 21:19:21 21:23:55 79° 257° (WSW) 21:28:31 145.935
CUBEBUG 2 19 Oct 21:23:01 21:26:50 24° 268° (W) 21:30:42 437.445
AO-85 19 Oct 21:31:00 21:34:23 21° 37° (NE) 21:37:56 145.980
ZACube-1 19 Oct 21:41:15 21:45:37 43° 262° (W) 21:50:00 437.345
EO-88 19 Oct 22:01:50 22:04:49 24° 68° (ENE) 22:07:50 145.990 - 145.960
UWE-3 19 Oct 22:03:46 22:06:46 17° 271° (W) 22:09:46 435.000/436.395/437.385
O/OREOS (USA 219) 19 Oct 22:03:48 22:08:19 69° 112° (ESE) 22:12:55 437.305
Max Valier Satellite 19 Oct 22:09:21 22:12:52 40° 71° (ENE) 22:16:23 145.860
BEESAT 2 19 Oct 22:13:25 22:17:21 45° 47° (NE) 22:21:13 435.950
STRAND 1 19 Oct 22:14:30 22:19:16 38° 294° (WNW) 22:24:00 437.568
YUBILEINY 19 Oct 22:19:45 22:28:28 69° 266° (W) 22:37:11 435.215
Oscar 11 19 Oct 22:20:15 22:23:56 27° 266° (W) 22:27:38 .
BEESAT 3 19 Oct 22:32:11 22:35:55 40° 241° (WSW) 22:39:36 437.485
DELFI C3 19 Oct 22:40:14 22:44:06 63° 259° (W) 22:48:00 145.870
FO-29 19 Oct 22:40:15 22:47:02 73° 103° (ESE) 22:54:33 435.910
ESTCUBE 1 19 Oct 22:41:35 22:42:54 11° 56° (ENE) 22:44:13 437.505/2401.250
UNISAT 6 19 Oct 22:52:33 22:56:27 26° 93° (E) 23:00:15 437.425
LO-87 19 Oct 22:54:41 22:56:45 15° 63° (ENE) 22:58:49 145.935 - 145.965
TIGRISAT 19 Oct 23:07:21 23:11:33 33° 96° (E) 23:15:39 435.000
AO-85 19 Oct 23:10:44 23:15:14 79° 236° (SW) 23:20:06 145.980
EO-88 19 Oct 23:35:19 23:38:24 26° 265° (W) 23:41:31 145.990 - 145.960
Max Valier Satellite 19 Oct 23:44:26 23:46:52 16° 268° (W) 23:49:19 145.860
O/OREOS (USA 219) 19 Oct 23:45:04 23:48:15 18° 312° (NW) 23:51:26 437.305
BEESAT 2 19 Oct 23:51:41 23:54:49 22° 246° (WSW) 23:57:54 435.950
AIST 2D 19 Oct 23:59:24 00:00:55 12° 90° (E) 00:02:26 435.315
VELOX 1 20 Oct 00:08:59 00:11:34 16° 60° (ENE) 00:14:11 145.980
PRISM 20 Oct 00:09:44 00:13:51 67° 102° (ESE) 00:17:58 437.425
ESTCUBE 1 20 Oct 00:14:27 00:18:56 81° 77° (ENE) 00:23:28 437.505/2401.250
YUBILEINY 20 Oct 00:19:14 00:23:31 15° 288° (WNW) 00:27:49 435.215
QB50P2 20 Oct 00:23:48 00:25:17 12° 88° (E) 00:26:46 145.880/145.840
FO-29 20 Oct 00:26:11 00:31:36 27° 300° (WNW) 00:37:29 435.910
LO-87 20 Oct 00:26:19 00:29:47 46° 261° (W) 00:33:18 145.935 - 145.965
NANOSAT C BR1 20 Oct 00:28:44 00:29:06 10° 87° (E) 00:29:26 145.865
UNISAT 6 20 Oct 00:28:57 00:33:14 38° 292° (WNW) 00:37:26 437.425
RS-15 20 Oct 00:33:53 00:43:41 30° 102° (ESE) 00:53:27 29.354- 29.394
DUCHIFAT 1 20 Oct 00:38:44 00:40:16 12° 88° (E) 00:41:48 145.980
TIGRISAT 20 Oct 00:44:07 00:48:10 30° 294° (WNW) 00:52:07 435.000
AO-85 20 Oct 00:53:38 00:55:02 11° 251° (WSW) 00:56:28 145.980
SPROUT 20 Oct 01:02:45 01:06:59 67° 74° (ENE) 01:11:16 437.525
DX 1 20 Oct 01:16:30 01:19:37 20° 62° (ENE) 01:22:44 434.975-435.025
50 SAT 20 Oct 01:18:37 01:20:49 17° 65° (ENE) 01:23:01 437.505
AIST 2D 20 Oct 01:31:01 01:34:22 46° 287° (WNW) 01:37:41 435.315
EO-79 20 Oct 01:32:31 01:36:43 54° 100° (E) 01:40:53 145.935-145.965
POLYITAN 1 20 Oct 01:37:04 01:41:19 60° 101° (E) 01:45:31 437.675
UKube-1 20 Oct 01:41:26 01:44:47 22° 63° (ENE) 01:48:08 .
VELOX 1 20 Oct 01:43:10 01:47:31 67° 258° (WSW) 01:51:55 145.980
PRISM 20 Oct 01:46:27 01:48:37 14° 300° (WNW) 01:50:46 437.425
ESTCUBE 1 20 Oct 01:54:47 01:56:20 12° 272° (W) 01:57:53 437.505/2401.250
QB50P2 20 Oct 01:57:19 02:01:36 75° 286° (WNW) 02:05:50 145.880/145.840
NANOSAT C BR1 20 Oct 02:01:07 02:05:24 84° 282° (WNW) 02:09:37 145.865
DUCHIFAT 1 20 Oct 02:12:11 02:16:27 74° 286° (WNW) 02:20:39 145.980
Oscar 19 20 Oct 02:16:32 02:20:13 20° 91° (E) 02:23:52 437.125/150
BUGSAT 1 20 Oct 02:22:08 02:26:08 38° 98° (E) 02:30:03 437.445
ITUPSAT 1 20 Oct 02:36:30 02:39:01 14° 57° (ENE) 02:41:34 437.325
SPROUT 20 Oct 02:41:17 02:43:20 13° 271° (W) 02:45:24 437.525
RS-15 20 Oct 02:42:20 02:54:43 90° 312° (NW) 03:07:03 29.354- 29.394
Gurwin Techsat 1B 20 Oct 02:43:23 02:47:42 25° 93° (E) 02:52:00 435.225
50 SAT 20 Oct 02:50:01 02:52:55 30° 263° (W) 02:55:53 437.505
DX 1 20 Oct 02:51:17 02:55:27 48° 260° (W) 02:59:42 434.975-435.025
BEESAT 20 Oct 02:51:22 02:54:43 19° 60° (ENE) 02:58:04 436.000
EO-79 20 Oct 03:09:15 03:12:05 18° 298° (WNW) 03:14:54 145.935-145.965
POLYITAN 1 20 Oct 03:14:01 03:16:38 16° 299° (WNW) 03:19:14 437.675
UKube-1 20 Oct 03:16:30 03:20:34 41° 261° (W) 03:24:40 .
M-CUBED/EXP-1 PRIME 20 Oct 03:20:37 03:23:58 41° 105° (ESE) 03:27:33 437.505
NANOSAT C BR1 20 Oct 03:39:25 03:40:22 11° 303° (WNW) 03:41:19 145.865
MOZHAYETS 4 20 Oct 03:46:34 03:51:08 60° 72° (ENE) 03:55:43
Oscar 19 20 Oct 03:54:53 03:59:57 60° 289° (WNW) 04:04:58 437.125/150
BUGSAT 1 20 Oct 03:57:55 04:01:16 23° 295° (WNW) 04:04:34 437.445
CUBESAT XI-V 20 Oct 03:57:57 04:01:20 20° 62° (ENE) 04:04:42 437.345
AO-7 20 Oct 04:06:37 04:13:09 25° 92° (E) 04:19:39 .
NO-84 20 Oct 04:11:12 04:14:57 30° 133° (SE) 04:18:41 435.350 FM
ITUPSAT 1 20 Oct 04:11:21 04:16:10 87° 259° (WSW) 04:21:02 437.325
Gurwin Techsat 1B 20 Oct 04:22:47 04:27:55 51° 291° (WNW) 04:33:02 435.225
ITAMSAT 1 20 Oct 04:27:10 04:31:06 21° 92° (E) 04:34:59 435.822/435.867
BEESAT 20 Oct 04:27:18 04:32:02 61° 258° (WSW) 04:36:49 436.000
M-CUBED/EXP-1 PRIME 20 Oct 04:55:53 04:58:12 17° 301° (WNW) 05:00:35 437.505
RS-15 20 Oct 04:57:26 05:08:56 42° 334° (NNW) 05:20:14 29.354- 29.394
KKS-1 20 Oct 05:17:06 05:21:10 36° 68° (ENE) 05:25:16 437.445
DOVE 4 20 Oct 05:25:33 05:26:47 11° 86° (E) 05:28:03 437.250
MOZHAYETS 4 20 Oct 05:25:42 05:28:40 17° 270° (W) 05:31:39
